Weather History for Munising, MI

Change the Weather History Date:

Wednesday, December 11, 2013

  Actual Average (KISQ) Record (KISQ)
Temperature  
Mean Temperature 7 °F -  
Max Temperature 14 °F 29 °F 43 °F (1949)
Min Temperature 0 °F 14 °F -13 °F (1972)
Degree Days  
Heating Degree Days 58    
Moisture  
Dew Point -5 °F    
Average Humidity 61    
Maximum Humidity 77    
Minimum Humidity 48    
Precipitation  
Precipitation 0.30 in - - ()
Sea Level Pressure  
Sea Level Pressure 30.25 in    
Wind  
Wind Speed 9 mph (WSW)    
Max Wind Speed 17 mph    
Max Gust Speed 24 mph    
Averages and records for this station are not official NWS values.
T = Trace of Precipitation, MM = Missing Value Source: NWS Daily Summary

Daily Weather History Graph

Daily Weather History Graph

Search for Another Location

Airport:

Trip Planner

Search our weather history database for the weather conditions in past years. The results will help you decide how hot, cold, wet, or windy it might be!

Date:

Astronomy

Dec. 11, 2013 Rise Set
Actual Time 8:20 AM EST 4:59 PM EST
Civil Twilight 7:45 AM EST 5:34 PM EST
Nautical Twilight 7:07 AM EST 6:12 PM EST
Astronomical Twilight 6:30 AM EST 6:49 PM EST
Moon 1:47 PM EST (12/11) 2:24 AM EST (12/11)
Length of Visible Light 9h 49m
Length of Day
8h 39m
Waxing Gibbous, 71% of the Moon is Illuminated
Dec 11
Waxing Gibbous
Dec 17
Full
Dec 25
Last Quarter
Jan 1
New
Jan 7
First Quarter

Hourly Weather History & Observations

Time (EST) Temp. Windchill Dew Point Humidity Pressure Visibility Wind Dir Wind Speed Gust Speed Precip Events Conditions
12:56 AM 5.0 °F -6.9 °F -6.0 °F 61% 30.08 in - WSW 6.9 mph 17.3 mph N/A   Unknown
1:56 AM 5.0 °F -10.0 °F -7.1 °F 58% 30.09 in - WSW 10.4 mph 16.1 mph N/A   Unknown
2:56 AM 3.9 °F -12.2 °F -7.1 °F 60% 30.12 in - SW 11.5 mph 17.3 mph N/A   Unknown
3:56 AM 3.9 °F -12.2 °F -7.1 °F 60% 30.13 in - SW 11.5 mph 19.6 mph N/A   Unknown
4:56 AM 1.9 °F -14.7 °F -8.0 °F 63% 30.14 in - SW 11.5 mph - N/A   Unknown
5:56 AM 3.0 °F -12.5 °F -7.1 °F 63% 30.16 in - WSW 10.4 mph 17.3 mph N/A   Unknown
6:56 AM 1.9 °F -14.7 °F -7.1 °F 66% 30.19 in - WSW 11.5 mph 17.3 mph N/A   Unknown
7:56 AM 5.0 °F -10.0 °F -5.1 °F 63% 30.20 in - West 10.4 mph 24.2 mph N/A   Unknown
8:56 AM 5.0 °F -10.0 °F -2.0 °F 73% 30.24 in - West 10.4 mph 21.9 mph 0.02 in   Unknown
9:56 AM 7.0 °F -6.6 °F 1.0 °F 77% 30.27 in - West 9.2 mph 18.4 mph 0.04 in   Unknown
10:56 AM 7.0 °F -9.1 °F 1.0 °F 77% 30.29 in - West 12.7 mph 19.6 mph 0.08 in   Unknown
11:56 AM 8.1 °F -4.3 °F 1.9 °F 76% 30.28 in - WSW 8.1 mph - 0.08 in   Unknown
12:56 PM 9.0 °F -2.2 °F 1.9 °F 73% 30.28 in - Variable 6.9 mph - 0.07 in   Unknown
1:56 PM 12.9 °F -3.9 °F 1.0 °F 59% 30.27 in - WNW 17.3 mph 21.9 mph N/A   Unknown
2:56 PM 14.0 °F 2.0 °F -0.0 °F 54% 30.28 in - West 9.2 mph - N/A   Unknown
3:56 PM 12.0 °F 0.5 °F -4.0 °F 49% 30.30 in - West 8.1 mph 18.4 mph 0.01 in   Unknown
4:56 PM 10.0 °F -1.9 °F -6.0 °F 48% 30.32 in - WSW 8.1 mph - N/A   Unknown
5:56 PM 7.0 °F -4.5 °F -7.1 °F 53% 30.33 in - SW 6.9 mph - N/A   Unknown
6:56 PM 6.1 °F -7.8 °F -8.0 °F 53% 30.36 in - WSW 9.2 mph - N/A   Unknown
7:56 PM 5.0 °F -9.1 °F -9.9 °F 50% 30.36 in - WSW 9.2 mph 16.1 mph N/A   Unknown
8:56 PM 3.0 °F -10.5 °F -9.9 °F 55% 30.36 in - SW 8.1 mph - N/A   Unknown
9:56 PM 1.0 °F -11.7 °F -11.0 °F 57% 30.35 in - SW 6.9 mph - N/A   Unknown
10:56 PM -0.0 °F -13.0 °F -11.9 °F 57% 30.35 in - SSW 6.9 mph - N/A   Unknown
11:56 PM -0.9 °F -8.9 °F -11.9 °F 60% 30.34 in - South 3.5 mph - N/A   Unknown